World > North America > United States > Texas

Dotson, Texas Regional Weather

Lat: 32.00N, Lon: 94.53W
Wx Zone: TXZ151Web Search
Dotson Weather Warning NWS WEATHER ALERT FOR THE DOTSON, TX AREA - Issued: 1238 PM CDT Thu Apr 15 2021 Dotson Weather Warning  

Helpful Tip: Abbreviated, 7 Day, 14 Day Forecasts. There is a weather forecast for every taste.

Feedback


°F Click to change Dotson hourly weather to Imperial units.Click to change Dotson hourly weather to Metric units. °C
Dotson Weather Map
UTC Time: 4/15/2021, 18:12
Your Time:

Dotson, TX Regional Weather

Expires:202104151900;;601011
ASUS44 KFWD 151810
RWRTX 
NORTH TEXAS HOURLY WEATHER ROUNDUP
NATIONAL WEATHER SERVICE FORT WORTH TX
100 PM CDT THU APR 15 2021

NOTE: "FAIR" INDICATES FEW OR NO CLOUDS BELOW 12,000 FEET WITH NO
SIGNIFICANT WEATHER AND/OR OBSTRUCTIONS TO VISIBILITY.


TXZ095>097-106>112-122>126-135>138-148>153-164>167-151900-
EAST TEXAS
  
CITY           SKY/WX    TMP DP  RH WIND       PRES   REMARKS
PARIS          FAIR      66  49  54 NE10      30.04F                  
6HR MIN TEMP:  50; 6HR MAX TEMP:  66;                                

SULPHUR SPRNGS FAIR      64  50  59 E8        30.05F                  
6HR MIN TEMP:  52; 6HR MAX TEMP:  64;                                

GILMER         FAIR      62  49  63 NE8       30.05F                  
6HR MIN TEMP:  51; 6HR MAX TEMP:  64;                                

MINEOLA        FAIR      64  50  59 E6        30.03F                  
TYLER          FAIR      64  50  60 E10       30.02F                  
6HR MIN TEMP:  56; 6HR MAX TEMP:  64;                                

LONGVIEW       FAIR      64  50  60 NE8       30.02F                  
6HR MIN TEMP:  54; 6HR MAX TEMP:  65;                                

MARSHALL       FAIR      65  53  65 NE5       30.06F                  
6HR MIN TEMP:  53; 6HR MAX TEMP:  65;                                

ATHENS         FAIR      63  52  67 E10       30.00F                  
PALESTINE      CLOUDY    63  55  77 NE10      30.01F                  
JACKSONVILLE   CLOUDY    63  56  78 CALM      30.04F                  
HENDERSON      FAIR      65  51  62 NE10      30.03F                  
6HR MIN TEMP:  55; 6HR MAX TEMP:  65;                                

CENTER         PTSUNNY   68  54  60 NE9       30.04F                  
NACOGDOCHES    CLOUDY    63  54  72 E8        30.02F                  
6HR MIN TEMP:  57; 6HR MAX TEMP:  63;                                

LUFKIN         CLOUDY    64  56  75 NE8       30.01F                  
6HR MIN TEMP:  58; 6HR MAX TEMP:  65;                                

$$

SUPPLEMENTAL OBSERVATIONS (NWS FORT WORTH AREA)
  
CITY           SKY/WX    TMP DP  RH WIND       PRES   REMARKS
CADDO GRASSLND   N/A     66  48  52 E6          N/A                   
LBJ GRASSLAND    N/A     59  52  77 NE6G18      N/A                   
GRANBURY         N/A     61  52  72 E14         N/A                   
MCGREGOR         N/A     61  55  82 NE15        N/A                   
$$

SUPPLEMENTAL OBSERVATIONS (NWS NORMAN AREA)
  
CITY           SKY/WX    TMP DP  RH WIND       PRES   REMARKS
GOODLETT         N/A     49  46  87 NE20      30.03F                  
ODELL          RAIN      49  47  94 E16       30.01F                  
CROWELL          N/A     51  49  94 E13       30.03S                  
KNOX CITY        N

SKY/WX - Weather  TMP - Temperature  DP - Dew Point  RH - Relative Humidity
WIND - Wind Direction/Speed PRES - Barometric Pressure VSB - Visibility
WCI - Wind Chill Index E13G22 Wind - East Wind 13 mph/Gusts of 22 mph